Location: Recife
(8.0585°S, 34.8848°W)
Time: 11:35:37
(UTC-03:00)

Courier 1B Rocket - Visible Passes

Search period start: 14 April 2026 00:00
Search period end: 24 April 2026 00:00
Orbit: 920 x 1201 km, 28.2° (Epoch: 14 April)

Date Brightness Start Highest point End Pass type
(mag) Time Alt. Az. Time Alt. Az. Time Alt. Az.
14 Apr 5.8 03:56:00 17° NW 04:00:43 47° NNE 04:07:06 10° ESE visible
15 Apr 6.3 02:59:14 29° NNE 02:59:31 30° NNE 03:05:03 10° E visible
15 Apr 5.0 04:46:30 10° WNW 04:52:50 73° SSW 04:59:39 10° ESE visible
16 Apr 7.7 02:02:28 10° ENE 02:02:28 10° ENE 02:02:30 10° ENE visible
16 Apr 5.0 03:48:52 36° NW 03:51:35 75° NNE 03:58:11 10° ESE visible
17 Apr 6.0 02:52:03 39° ENE 02:52:03 39° ENE 02:56:33 10° ESE visible
17 Apr 5.3 04:38:26 13° W 04:43:50 48° SSW 04:50:16 10° SE visible
18 Apr 4.8 03:41:35 61° W 03:42:32 71° SSW 03:49:01 10° SE visible
19 Apr 6.5 02:44:40 29° ESE 02:44:40 29° ESE 02:47:40 10° ESE visible
19 Apr 5.8 04:31:03 18° WSW 04:34:56 32° SSW 04:40:44 10° SE visible
20 Apr 5.3 03:34:04 45° S 03:34:04 45° S 03:39:41 10° SE visible
21 Apr 7.0 02:37:01 18° SE 02:37:01 18° SE 02:38:33 10° SE visible
21 Apr 6.2 04:23:24 17° SW 04:26:08 23° SSW 04:31:08 10° SSE visible
22 Apr 6.2 03:26:17 27° S 03:26:17 27° S 03:30:11 10° SE visible
23 Apr 7.5 02:29:08 11° SE 02:29:08 11° SE 02:29:15 10° SE visible
23 Apr 6.5 04:15:30 15° SW 04:17:26 17° SSW 04:21:27 10° SSE visible
